SRR355 BIKF-EGCC

Flight info

Callsign SRR355
Flight time N/A
Altitude 37000
Route RIMUM1A RIMUM DCT RUMUX DCT RAPAX DCT ERAKA/N0477F370 DCT ETSOM DCT TLA DCT DCS DCT ASCOM L612 LAKEY
Aircraft B77L/H-SDE1E2E3FGHIJ2J3J4J5M1RWXY/LB1D1

Departure

Time N/A
Airport Keflavik International Airport (BIKF)

Arrival

Time 2026-05-05 11:22
Airport Manchester Airport (EGCC)
Time Latitude Longitude Altitude Speed Heading
2026-05-05 10:49 55.83239 -4.12184 37073 ft 499 kts 129°
2026-05-05 10:49 55.79034 -4.02355 37060 ft 498 kts 129°
2026-05-05 10:50 55.74823 -3.92549 37055 ft 498 kts 129°
2026-05-05 10:50 55.70627 -3.82817 37034 ft 498 kts 129°
2026-05-05 10:51 55.66412 -3.73081 37043 ft 498 kts 129°
2026-05-05 10:51 55.62183 -3.63353 37044 ft 498 kts 129°
2026-05-05 10:52 55.57976 -3.53707 37043 ft 497 kts 129°
2026-05-05 10:52 55.53744 -3.44043 37039 ft 497 kts 130°
2026-05-05 10:52 55.51427 -3.39610 37026 ft 489 kts 144°
2026-05-05 10:53 55.48519 -3.36615 37043 ft 481 kts 162°
2026-05-05 10:53 55.45307 -3.35133 37024 ft 475 kts 176°
2026-05-05 10:53 55.42023 -3.34937 37048 ft 469 kts 184°
2026-05-05 10:54 55.35501 -3.35053 37049 ft 473 kts 183°
2026-05-05 10:54 55.28890 -3.35003 37035 ft 477 kts 182°
2026-05-05 10:55 55.22235 -3.34896 37045 ft 479 kts 182°
2026-05-05 10:55 55.15552 -3.34782 37036 ft 480 kts 182°
2026-05-05 10:56 55.08908 -3.34673 36973 ft 481 kts 182°
2026-05-05 10:56 55.05477 -3.34621 36191 ft 490 kts 182°
2026-05-05 10:56 55.02136 -3.34568 35492 ft 486 kts 182°
2026-05-05 10:56 54.98746 -3.34513 34665 ft 485 kts 182°
2026-05-05 10:57 54.95375 -3.34460 33710 ft 485 kts 182°
2026-05-05 10:57 54.92005 -3.34406 32749 ft 484 kts 182°
2026-05-05 10:57 54.88666 -3.34352 32148 ft 476 kts 182°
2026-05-05 10:57 54.85380 -3.34300 31528 ft 469 kts 182°
2026-05-05 10:58 54.82133 -3.34249 30950 ft 463 kts 182°
2026-05-05 10:58 54.78932 -3.34199 30397 ft 457 kts 183°
2026-05-05 10:58 54.75764 -3.34090 29812 ft 453 kts 180°
2026-05-05 10:58 54.72644 -3.33386 29228 ft 452 kts 172°
2026-05-05 10:59 54.69612 -3.32016 28657 ft 448 kts 166°
2026-05-05 10:59 54.66704 -3.30113 28087 ft 446 kts 159°
2026-05-05 10:59 54.63904 -3.27870 27573 ft 441 kts 159°
2026-05-05 10:59 54.61109 -3.25724 27021 ft 437 kts 160°
2026-05-05 11:00 54.58332 -3.23651 26484 ft 433 kts 160°
2026-05-05 11:00 54.55567 -3.21600 25954 ft 429 kts 160°
2026-05-05 11:00 54.52840 -3.19569 25438 ft 425 kts 160°
2026-05-05 11:00 54.50142 -3.17556 24960 ft 421 kts 160°
2026-05-05 11:01 54.47462 -3.15557 24472 ft 418 kts 160°
2026-05-05 11:01 54.44834 -3.13601 23975 ft 415 kts 160°
2026-05-05 11:01 54.42194 -3.11638 23475 ft 412 kts 160°
2026-05-05 11:01 54.39571 -3.09688 22924 ft 409 kts 159°
2026-05-05 11:02 54.36968 -3.07755 22421 ft 405 kts 159°
2026-05-05 11:02 54.34392 -3.05849 21947 ft 401 kts 159°
2026-05-05 11:02 54.31836 -3.03957 21463 ft 398 kts 159°
2026-05-05 11:02 54.29299 -3.02081 21010 ft 395 kts 159°
2026-05-05 11:03 54.26780 -3.00224 20519 ft 393 kts 159°
2026-05-05 11:03 54.24275 -2.98376 20058 ft 391 kts 159°
2026-05-05 11:03 54.21864 -2.96265 19540 ft 392 kts 151°
2026-05-05 11:03 54.19555 -2.93716 19036 ft 397 kts 148°
2026-05-05 11:04 54.17277 -2.91018 18528 ft 398 kts 147°
2026-05-05 11:04 54.15008 -2.88323 17971 ft 397 kts 147°
2026-05-05 11:04 54.12741 -2.85678 17405 ft 394 kts 148°
2026-05-05 11:04 54.10486 -2.83096 17135 ft 384 kts 148°
2026-05-05 11:05 54.08305 -2.80630 17029 ft 369 kts 148°
2026-05-05 11:05 54.06190 -2.78257 16798 ft 359 kts 148°
2026-05-05 11:05 54.04110 -2.75937 16408 ft 356 kts 148°
2026-05-05 11:05 54.02074 -2.73672 16013 ft 352 kts 148°
2026-05-05 11:06 54.00037 -2.71410 15640 ft 348 kts 148°
2026-05-05 11:06 53.98015 -2.69166 15261 ft 345 kts 148°
2026-05-05 11:06 53.96014 -2.66947 14878 ft 342 kts 148°
2026-05-05 11:06 53.94026 -2.64746 14513 ft 340 kts 148°
2026-05-05 11:07 53.92052 -2.62562 14150 ft 337 kts 148°
2026-05-05 11:07 53.90094 -2.60398 13786 ft 334 kts 148°
2026-05-05 11:07 53.88159 -2.58260 13371 ft 330 kts 148°
2026-05-05 11:07 53.86239 -2.56143 12980 ft 327 kts 148°
2026-05-05 11:08 53.84339 -2.54051 12594 ft 324 kts 148°
2026-05-05 11:08 53.82477 -2.52001 12210 ft 322 kts 148°
2026-05-05 11:08 53.80598 -2.49998 11805 ft 314 kts 154°
2026-05-05 11:08 53.78570 -2.48912 11375 ft 300 kts 178°
2026-05-05 11:09 53.76579 -2.49374 10959 ft 281 kts 206°
2026-05-05 11:09 53.74967 -2.51045 10601 ft 266 kts 221°
2026-05-05 11:09 53.73512 -2.52942 10238 ft 261 kts 220°
2026-05-05 11:09 53.72077 -2.54793 9874 ft 259 kts 220°
2026-05-05 11:10 53.70644 -2.56643 9475 ft 259 kts 219°
2026-05-05 11:10 53.69208 -2.58500 9076 ft 260 kts 220°
2026-05-05 11:10 53.67758 -2.60334 8679 ft 261 kts 217°
2026-05-05 11:10 53.66109 -2.61532 8245 ft 265 kts 191°
2026-05-05 11:11 53.64265 -2.61730 7919 ft 264 kts 183°
2026-05-05 11:11 53.62426 -2.61888 7541 ft 264 kts 184°
2026-05-05 11:11 53.60622 -2.62084 7160 ft 257 kts 185°
2026-05-05 11:11 53.58871 -2.62274 7059 ft 246 kts 185°
2026-05-05 11:12 53.57150 -2.62469 7046 ft 250 kts 185°
2026-05-05 11:12 53.55383 -2.62662 6983 ft 259 kts 185°
2026-05-05 11:12 53.53561 -2.62858 6678 ft 262 kts 185°
2026-05-05 11:12 53.51777 -2.63066 6426 ft 253 kts 185°
2026-05-05 11:13 53.50050 -2.63271 6139 ft 244 kts 185°
2026-05-05 11:13 53.48384 -2.63467 5853 ft 235 kts 185°
2026-05-05 11:13 53.46780 -2.63658 5566 ft 227 kts 185°
2026-05-05 11:13 53.45224 -2.63830 5335 ft 221 kts 185°
2026-05-05 11:14 53.43671 -2.63996 5269 ft 226 kts 185°
2026-05-05 11:14 53.42084 -2.64169 5165 ft 229 kts 185°
2026-05-05 11:14 53.40500 -2.64342 4917 ft 232 kts 185°
2026-05-05 11:14 53.38894 -2.64513 4646 ft 230 kts 185°
2026-05-05 11:15 53.37303 -2.64677 4393 ft 227 kts 185°
2026-05-05 11:15 53.35736 -2.64840 4120 ft 224 kts 185°
2026-05-05 11:15 53.34224 -2.65007 4046 ft 214 kts 185°
2026-05-05 11:15 53.32714 -2.65155 4020 ft 220 kts 185°
2026-05-05 11:16 53.31173 -2.65313 4015 ft 220 kts 184°
2026-05-05 11:16 53.29687 -2.64944 3975 ft 217 kts 155°
2026-05-05 11:16 53.28412 -2.63689 4025 ft 212 kts 148°
2026-05-05 11:16 53.27127 -2.62457 3986 ft 212 kts 150°
2026-05-05 11:17 53.25836 -2.61245 3835 ft 214 kts 150°
2026-05-05 11:17 53.24541 -2.60034 3639 ft 212 kts 149°
2026-05-05 11:17 53.23396 -2.58565 3377 ft 207 kts 123°
2026-05-05 11:17 53.22938 -2.56376 3144 ft 198 kts 88°
2026-05-05 11:18 53.23009 -2.54110 3112 ft 194 kts 84°
2026-05-05 11:18 53.23175 -2.51937 3038 ft 187 kts 67°
2026-05-05 11:18 53.23888 -2.50197 3017 ft 181 kts 45°
2026-05-05 11:18 53.24693 -2.48550 2937 ft 185 kts 49°
2026-05-05 11:19 53.25477 -2.46867 2670 ft 178 kts 47°
2026-05-05 11:19 53.26237 -2.45297 2429 ft 173 kts 46°
2026-05-05 11:19 53.26991 -2.43756 2217 ft 171 kts 47°
2026-05-05 11:19 53.27747 -2.42211 1971 ft 172 kts 47°
2026-05-05 11:20 53.28504 -2.40659 1729 ft 171 kts 47°
2026-05-05 11:20 53.29256 -2.39119 1485 ft 171 kts 48°
2026-05-05 11:20 53.30009 -2.37577 1261 ft 172 kts 47°
2026-05-05 11:20 53.30763 -2.36033 1029 ft 171 kts 48°
2026-05-05 11:21 53.31511 -2.34499 753 ft 168 kts 47°
2026-05-05 11:21 53.32248 -2.32976 540 ft 170 kts 49°
2026-05-05 11:21 53.33005 -2.31464 320 ft 169 kts 50°
2026-05-05 11:21 53.33736 -2.29961 215 ft 156 kts 51°
2026-05-05 11:22 53.34245 -2.28917 223 ft 59 kts 51°
2026-05-05 11:22 53.34410 -2.28614 223 ft 28 kts 31°
2026-05-05 11:22 53.34587 -2.28485 232 ft 20 kts 21°
2026-05-05 11:22 53.34669 -2.28430 238 ft 10 kts 25°
2026-05-05 11:23 53.34710 -2.28388 237 ft 10 kts 37°
2026-05-05 11:23 53.34715 -2.28381 237 ft 0 kts 40°
2026-05-05 11:23 53.34747 -2.28327 238 ft 7 kts 47°
2026-05-05 11:24 53.34769 -2.28283 239 ft 7 kts 54°
2026-05-05 11:24 53.34799 -2.28216 241 ft 7 kts 52°
2026-05-05 11:24 53.34831 -2.28150 241 ft 8 kts 49°
2026-05-05 11:24 53.34875 -2.28064 240 ft 11 kts 50°
2026-05-05 11:25 53.34923 -2.27965 242 ft 11 kts 51°
2026-05-05 11:25 53.34970 -2.27866 243 ft 11 kts 51°
2026-05-05 11:25 53.35019 -2.27764 244 ft 11 kts 51°
2026-05-05 11:25 53.35068 -2.27663 248 ft 11 kts 51°
2026-05-05 11:26 53.35117 -2.27560 250 ft 11 kts 51°
2026-05-05 11:26 53.35166 -2.27458 252 ft 11 kts 51°
2026-05-05 11:26 53.35214 -2.27358 255 ft 11 kts 51°
2026-05-05 11:26 53.35265 -2.27257 256 ft 11 kts 47°
2026-05-05 11:27 53.35333 -2.27201 261 ft 11 kts
2026-05-05 11:27 53.35406 -2.27240 264 ft 11 kts 327°
2026-05-05 11:27 53.35469 -2.27319 266 ft 11 kts 322°
2026-05-05 11:27 53.35539 -2.27413 264 ft 15 kts 321°
2026-05-05 11:28 53.35638 -2.27544 252 ft 20 kts 322°
2026-05-05 11:28 53.35735 -2.27640 252 ft 15 kts 339°
2026-05-05 11:28 53.35818 -2.27745 252 ft 15 kts 314°
2026-05-05 11:28 53.35900 -2.27837 252 ft 14 kts 347°
2026-05-05 11:29 53.35991 -2.27874 252 ft 12 kts 348°
2026-05-05 11:29 53.36077 -2.27884 252 ft 12 kts 346°
2026-05-05 11:29 53.36146 -2.27966 252 ft 12 kts 315°
2026-05-05 11:29 53.36209 -2.28061 252 ft 12 kts 332°
2026-05-05 11:30 53.36294 -2.28056 252 ft 12 kts 15°
2026-05-05 11:30 53.36366 -2.27977 252 ft 12 kts 45°
2026-05-05 11:30 53.36371 -2.27850 252 ft 12 kts 126°
2026-05-05 11:30 53.36368 -2.27728 252 ft 11 kts 40°
2026-05-05 11:31 53.36398 -2.27680 252 ft 3 kts 45°
2026-05-05 11:31 53.36400 -2.27676 252 ft 0 kts 45°